Location: Godiavel Galaoual
(15.2485°N, 12.6604°W)
Time: 09:45:52
(UTC+00:00)

Centaur AC-112 - Pass Details

Date: 27 February 2020
Orbit: 294 x 20501 km, 26.7° (Epoch: 28 March)

Event Time Altitude Azimuth Distance (km) Brightness Sun altitude
Rises 20:05:11 0° 298° (WNW) 2,249 6.4 -17.0°
Reaches altitude 10° 20:06:28 10° 302° (WNW) 1,631 5.5 -17.3°
Maximum altitude 20:09:35 68° 27° (NNE) 864 3.1 -18.1°
Enters shadow 20:14:26 25° 104° (ESE) 2,775 5.3 -19.2°
